[[{"header":{"parameterUnit":"m.s-1","parameterCategory":1,"la1":30.2992,"la2":30.254,"lo1":-89.0895,"lo2":-89.0443,"dy":0.0025,"dx":0.0025,"nx":19,"ny":19,"refTime":"2026-04-09T21:00:00:Z","depth":0,"parameterNumber":2,"parameterNumberName":"U-component_of_WINDS"},"data":[0,0,0,-2.9842,-2.9843,-2.9856,-2.9856,-2.9885,-2.9885,0,0,0,0,0,0,0,0,0,0,0,-2.9845,-2.9845,-2.9842,-2.9843,-2.9856,-2.9856,-2.9884,-2.9885,0,0,0,0,0,0,0,0,0,0,0,-2.9845,-2.9845,-2.9846,-2.9843,-2.9856,-2.9856,-2.9884,-2.987,0,0,0,0,0,0,0,0,0,0,-2.9856,-2.9864,-2.9845,-2.9846,-2.9843,-2.9856,-2.9856,-2.987,-2.9871,-2.9884,0,-2.9896,0,-2.9891,-2.9888,-2.9888,0,0,0,-2.9838,-2.9863,-2.9861,-2.9846,-2.9843,-2.9856,-2.9849,-2.987,-2.9872,-2.9886,-2.9896,-2.9897,-2.9891,-2.9888,-2.9888,-2.9976,-2.9976,0,0,-2.9837,-2.985,-2.9859,-2.9862,-2.986,-2.9848,-2.9849,-2.9871,-2.9883,-2.9896,-2.9897,-2.9892,-2.9888,-2.9888,-2.9975,-2.9976,0,0,0,-2.9838,-2.985,-2.9847,-2.9861,-2.9863,-2.9849,-2.985,-2.9882,-2.988,-2.9897,-2.9892,-2.9888,-2.9889,-2.9974,-2.9975,-3.0019,0,0,0,-2.9838,-2.9851,-2.9847,-2.9856,-2.9863,-2.9872,-2.986,-2.9879,-2.9881,-2.9892,-2.9888,-2.9889,-2.9974,-2.9975,-3.0016,-3.0036,0,0,0,-2.9842,-2.9851,-2.9855,-2.9856,-2.9862,-2.9872,-2.9871,-2.9879,-2.9878,-2.9888,-2.9889,-2.9973,-2.9975,-3.0013,-3.0032,-3.0062,0,0,0,-2.985,-2.9893,-2.9856,-2.9904,-2.9862,-2.9899,-2.987,-2.9897,-2.9911,-2.9888,-2.9974,-2.9975,-3.0013,-3.0029,-3.006,-3.0088,-3.0102,0,0,-2.9912,-2.9901,-2.9928,-2.9895,-2.9942,-2.9896,-2.995,-2.995,-2.9939,-2.9964,-2.9966,-3.0017,-3.0031,-3.0062,-3.0179,-3.019,0,0,0,-2.9952,-2.9971,-2.9981,-2.9995,-2.9998,-3.0001,-2.9992,-2.9993,-3.0014,-2.9955,-3.0037,-3.0045,-3.0062,-3.0075,-3.0085,-3.0098,-2.9983,-2.9982,-2.9982,-3.0056,-3.0041,-3.0085,-3.0073,-3.0088,-3.0079,-3.009,-3.009,-3.0069,-3.009,-3.0095,-3.0169,-3.0185,-3.0191,-3.0206,-3.0112,-3.0112,-3.0112,-3.0112,-3.0144,-3.0168,-3.0144,-3.0177,-3.0162,-3.019,-3.0186,-3.0171,-3.0195,-3.0162,-3.0177,-3.0139,-3.0204,-3.0216,-3.0116,-3.0115,-3.0115,-3.0114,-3.0114,-3.0208,-3.0217,-3.0219,-3.024,-3.0258,-3.0246,-3.0271,-3.0257,-3.0243,-3.0258,-3.0263,-3.0262,-3.0258,-3.0262,-3.0262,-3.0263,-3.0263,-3.0263,-3.0263,-3.0272,-3.0273,-3.0295,-3.0304,-3.0313,-3.0323,-3.0319,-3.0328,-3.0333,-3.0321,-3.0321,-3.0298,-3.0214,-3.0192,-3.0267,-3.0266,-3.0266,-3.0265,-3.0265,-3.0361,-3.034,-3.0374,-3.0383,-3.0394,-3.0414,-3.0398,-3.0417,-3.0423,-3.0436,-3.0413,-3.0353,-3.0341,-3.0333,-3.0314,-3.0416,-3.0416,-3.0416,-3.0416,-3.0413,-3.0407,-3.044,-3.0456,-3.047,-3.046,-3.0501,-3.05,-3.0496,-3.0499,-3.0483,-3.0458,-3.0451,-3.0442,-3.0433,-3.0414,-3.054,-3.054,-3.054,-3.0467,-3.0462,-3.0498,-3.0494,-3.0503,-3.0511,-3.0549,-3.0569,-3.056,-3.0545,-3.05,-3.0495,-3.0455,-3.0443,-3.0422,-3.0407,-3.0373,0,0]},{"header":{"parameterUnit":"m.s-1","parameterCategory":1,"la1":30.2992,"la2":30.254,"lo1":-89.0895,"lo2":-89.0443,"dy":0.0025,"dx":0.0025,"nx":19,"ny":19,"refTime":"2026-04-09T21:00:00:Z","depth":0,"parameterNumber":3,"parameterNumberName":"V-component_of_WINDS"},"data":[0,0,0,3.3659,3.3659,3.3647,3.3648,3.3612,3.3611,0,0,0,0,0,0,0,0,0,0,0,3.3652,3.3652,3.3659,3.3659,3.3647,3.3648,3.3612,3.3611,0,0,0,0,0,0,0,0,0,0,0,3.3652,3.3652,3.3651,3.3659,3.3647,3.3648,3.3612,3.3627,0,0,0,0,0,0,0,0,0,0,3.3642,3.3625,3.3652,3.3651,3.3659,3.3647,3.3648,3.3628,3.3626,3.3609,0,3.3592,0,3.3601,3.3608,3.3608,0,0,0,3.3666,3.3627,3.3634,3.3651,3.3658,3.3647,3.3654,3.3627,3.3625,3.3606,3.3592,3.3591,3.3601,3.3607,3.3607,3.349,3.3489,0,0,3.3666,3.3643,3.3636,3.3632,3.3636,3.3655,3.3654,3.3626,3.3609,3.3592,3.3591,3.36,3.3607,3.3607,3.3491,3.3489,0,0,0,3.3663,3.3643,3.3652,3.3633,3.3633,3.3654,3.3653,3.361,3.3615,3.359,3.36,3.3607,3.3606,3.3491,3.349,3.3426,0,0,0,3.3664,3.3642,3.3652,3.3637,3.3633,3.3622,3.3637,3.3616,3.3614,3.36,3.3607,3.3606,3.3493,3.3491,3.343,3.3398,0,0,0,3.3656,3.3641,3.3637,3.3636,3.3631,3.3623,3.3626,3.3617,3.3619,3.3607,3.3605,3.3493,3.3491,3.3433,3.3404,3.336,0,0,0,3.364,3.3577,3.3635,3.3568,3.3631,3.3585,3.3627,3.3592,3.3574,3.3606,3.3492,3.349,3.3434,3.3407,3.3364,3.3319,3.3299,0,0,3.3547,3.3565,3.3528,3.3579,3.3517,3.3588,3.3516,3.3519,3.3537,3.3504,3.3501,3.3429,3.3404,3.3361,3.3196,3.318,0,0,0,3.349,3.3463,3.3452,3.3436,3.344,3.344,3.3458,3.346,3.3434,3.3516,3.3403,3.3389,3.3365,3.3344,3.333,3.331,3.348,3.3481,3.3481,3.3323,3.3354,3.3294,3.3324,3.3308,3.3329,3.3318,3.3324,3.3356,3.3329,3.3318,3.3215,3.319,3.318,3.3159,3.3299,3.3298,3.3298,3.3298,3.3188,3.3154,3.3204,3.3164,3.3196,3.3161,3.318,3.3205,3.3176,3.3225,3.3205,3.3253,3.3161,3.3144,3.3293,3.3294,3.3295,3.3295,3.3296,3.308,3.307,3.3076,3.3059,3.3041,3.3073,3.3045,3.3075,3.3102,3.3083,3.3075,3.3076,3.3079,3.3078,3.3077,3.3077,3.3077,3.3076,3.3076,3.2965,3.2975,3.2949,3.2951,3.2946,3.2943,3.2967,3.2962,3.2964,3.2988,3.2988,3.3022,3.3148,3.3178,3.307,3.3071,3.3072,3.3073,3.3073,3.2813,3.2853,3.2812,3.2808,3.2814,3.2795,3.2836,3.2825,3.2825,3.281,3.2851,3.294,3.2958,3.2969,3.2994,3.2845,3.2845,3.2845,3.2845,3.272,3.2735,3.2701,3.2693,3.2688,3.2722,3.2673,3.2692,3.2717,3.2719,3.2745,3.2782,3.2792,3.2804,3.2819,3.2842,3.2659,3.2659,3.2659,3.2628,3.2644,3.2598,3.2627,3.2635,3.264,3.2596,3.2582,3.2619,3.2652,3.2721,3.2729,3.2788,3.2806,3.2836,3.2858,3.2902,0,0]}]]